Starlink 3702

operational
NORAD ID: 52100 Int'l Des: 2022-029 Owner: SPXS Country: US Constellation: starlink
LEOCIRCULAR

关于 Starlink 3702

正在加载描述...

实时位置

正在加载3D地球...

即将过境

高度历史

Altitude vs Time

uPlot chart will show altitude changes over time

两行轨道根数

1 52100U 22029N 25259.11965652 .00000415 00000-0 44168-4 0 9998
2 52100 53.2183 152.7952 0001601 96.4664 263.6510 15.08840726194307
Epoch: Sep 16, 2025 • Age: 17 hours

当前状态

高度 544.7 km
速度 7.59 km/s
星下点 -17.19°S, 52.07°E
发射日期 Mar 19, 2022
运行时间 3.4 years
类型 internet

技术详情

分类 Payload
质量 297.00 kg
干质量 275.00 kg
总质量 297.00 kg
长度 0.20 m
直径 2.80 m
跨度 9.00 m
形状 Box + pan
制造商 SPXS
平台类型 Starlink
阶段状态 In Orbit
所有者/国家 SPXS/US

大型星座

Loading constellations...